Weather in Andalusia

United States     31°18′49″N   86°28′43″W
temp.,
°C
wind,
m/s
gust,
m/s
humid.,
%
clouds,
%
prec.,
mm/h
press.,
hPa
HPBL,
m
26 may, thu
thu2601:00+20sse31396100 1.1 1016568
04:00+20se31198100 5.8 1015348
07:00+20se41496100 9.0 1016603
10:00+24s51188100 2.1 10161093
13:00+28ssw6126899 4.4 10151435
16:00+23w479482 7.3 1014637
19:00+19sw149664 16.2 1014166
22:00+18s239811 0.1 101555
27 may, fri
fri2701:00+17s23983 0.1 101455
04:00+17wsw23970 0.0 101362
07:00+18sw29950 0.0 1014258
10:00+26w48520 0.0 10141001
13:00+29w58340 0.0 10142265
16:00+29wnw47340 0.0 10122566
19:00+23nw23600 0.0 101254
22:00+18nw22690 0.0 101333
28 may, sat
sat2801:00+17n22780 0.0 101332
04:00+16n24880 0.0 101378
07:00+18nne24810 0.0 1014129
10:00+25n22540 0.0 1015948
13:00+29nnw22400 0.0 10141800
16:00+30nnw21380 0.0 10122069
19:00+25n22620 0.0 101230
22:00+20ne12740 0.0 101413
29 may, sun
sun2901:00+19ese11780 0.0 101411
04:00+18e11810 0.0 101411
07:00+20e13770 0.0 101593
10:00+28ese24480 0.0 10161040
13:00+32ese343853 0.0 10152743
16:00+28sse255796 0.0 1014419
19:00+25s24650 0.0 101496
22:00+21ssw24780 0.0 101674
30 may, mon
mon3001:00+19ssw11860 0.0 101611
04:00+18sse11920 0.0 101711
07:00+20se12800 0.0 101985
10:00+29se24440 0.0 1019926
13:00+33se34350 0.0 10181972
16:00+33e443729 0.0 10172443
19:00+28se366095 0.1 1017199
22:00+21ese2593100 1.6 102096